Location: Beranovka
(49.9415°N, 12.8435°E)
Time: 23:38:47
(UTC+00:00)

Cosmos 1954 Rocket - Pass Details

Date: 10 August 2020
Orbit: 753 x 781 km, 74.1° (Epoch: 23 September)

Event Time Altitude Azimuth Distance (km) Brightness Sun altitude
Rises 20:31:29 0° 205° (SSW) 3,252 7.0 -15.7°
Reaches altitude 10° 20:33:51 10° 206° (SSW) 2,330 6.3 -15.9°
Maximum altitude 20:39:10 81° 294° (WNW) 798 4.1 -16.5°
Drops below altitude 10° 20:44:31 10° 22° (NNE) 2,345 6.9 -17.0°
Sets 20:46:55 0° 24° (NNE) 3,275 7.7 -17.3°
